Location: ??????
(56.0120°N, 39.1740°E)
Time: 21:55:01
(UTC+00:00)

Nadezhda 4 Rocket - Pass Details

Date: 14 April 2026
Orbit: 948 x 992 km, 82.9° (Epoch: 11 May)

Event Time Altitude Azimuth Distance (km) Brightness Sun altitude
Rises 22:08:19 0° 348° (NNW) 3,679 8.1 -23.7°
Reaches altitude 10° 22:10:52 10° 351° (N) 2,722 7.3 -23.6°
Maximum altitude 22:17:05 71° 75° (ENE) 1,015 4.1 -23.4°
Enters shadow 22:19:35 38° 150° (SSE) 1,435 4.5 -23.3°
